User: anonymous   Login
Location: Treviso
(45.6669°N, 12.2430°E)
Time: 01:54:27
(UTC+01:00)
Language:

KAITUO 1B - Orbit

View from above orbital plane
View from above orbital plane
View from above satellite
View from above satellite

Ground track
Ground track

The orbit data is extracted from the following two-line orbital elements,

1 40912U 15049P   21057.82116959  .00002425  00000-0  11179-3 0  9996
2 40912  97.4479  68.6186 0015084 162.8702 322.1342 15.21135952301372
Epoch (UTC): 26 February 2021 19:42:29
Eccentricity: 0.0015084
inclination: 97.4479°
perigee height: 492 km
apogee height: 513 km
right ascension of ascending node: 68.6186°
argument of perigee: 162.8702°
revolutions per day: 15.21135952
mean anomaly at epoch: 322.1342°
orbit number at epoch: 30137

The dashed part of the orbit path shows where the satellite is in the earth's shadow,  

DLR